Location: Brusselsch Zeekanaal
(50.8667°N, 4.3667°E)
Time: 09:12:02
(UTC+00:00)

Gbstr 26 Del rocket - Pass Details

Date: 08 November 2025
Orbit: 489 x 1219 km, 51.8° (Epoch: 12 December)

Event Time Altitude Azimuth Distance (km) Brightness Sun altitude
Exits shadow 05:40:54 10° 254° (WSW) 2,206 5.4 -10.6°
Reaches altitude 10° 05:40:55 10° 254° (WSW) 2,196 5.3 -10.6°
Maximum altitude 05:46:03 87° 167° (SSE) 836 3.7 -9.8°
Drops below altitude 10° 05:52:28 10° 78° (ENE) 2,716 7.4 -8.8°
Sets 05:55:21 0° 78° (ENE) 3,780 8.3 -8.4°
